Location: Bad Rothenbrunn
(47.2167°N, 11.2167°E)
Time: 04:21:02
(UTC+00:00)

Meteor 1-11 Rocket - Pass Details

Date: 03 March 2021
Orbit: 831 x 916 km, 81.2° (Epoch: 22 April)

Event Time Altitude Azimuth Distance (km) Brightness Sun altitude
Rises 19:23:24 0° 193° (SSW) 3,465 6.8 -24.3°
Reaches altitude 10° 19:25:51 10° 194° (SSW) 2,518 6.1 -24.7°
Maximum altitude 19:31:35 79° 281° (W) 880 3.8 -25.6°
Drops below altitude 10° 19:37:13 10° 9° (N) 2,481 6.2 -26.5°
Sets 19:39:38 0° 11° (N) 3,411 7.0 -26.9°
